Weather History for Santa Barbara, CA

Change the Weather History Date:

Wednesday, February 6, 2013

  Actual Average Record
Temperature  
Mean Temperature 50 °F 53 °F  
Max Temperature 60 °F 64 °F 85 °F (1953)
Min Temperature 39 °F 43 °F 25 °F (1989)
Degree Days  
Heating Degree Days 15 12  
Month to date heating degree days 66 72  
Since 1 July heating degree days 1206 1356  
Cooling Degree Days 0 0  
Month to date cooling degree days 0 0  
Year to date cooling degree days 0 0  
Moisture  
Dew Point 43 °F    
Average Humidity 84    
Maximum Humidity 100    
Minimum Humidity 67    
Precipitation  
Precipitation 0.00 in 0.14 in 3.05 in (1998)
Month to date precipitation 0.00 0.84  
Year to date precipitation 2.04 4.34  
Since 1 July precipitation 8.11 10.05  
Sea Level Pressure  
Sea Level Pressure 30.04 in    
Wind  
Wind Speed 2 mph (SSE)    
Max Wind Speed 10 mph    
Max Gust Speed 13 mph    
Visibility 6 miles    
Events      
T = Trace of Precipitation, MM = Missing Value Source: NWS Daily Summary

Daily Weather History Graph

Daily Weather History Graph

Search for Another Location

Airport:

Trip Planner

Search our weather history database for the weather conditions in past years. The results will help you decide how hot, cold, wet, or windy it might be!

Date:

Astronomy

Feb. 06, 2013 Rise Set
Actual Time 6:52 AM PST 5:34 PM PST
Civil Twilight 6:26 AM PST 6:00 PM PST
Nautical Twilight 5:56 AM PST 6:30 PM PST
Astronomical Twilight 5:27 AM PST 6:59 PM PST
Moon 3:36 AM PST (2/6) 2:02 PM PST (2/6)
Length of Visible Light 11h 33m
Length of Day
10h 41m
Waning Crescent, 16% of the Moon is Illuminated
Feb 6
Waning Crescent
Feb 9
New
Feb 17
First Quarter
Feb 25
Full
Mar 4
Last Quarter

Hourly Weather History & Observations

Time (PST) Temp. Windchill Dew Point Humidity Pressure Visibility Wind Dir Wind Speed Gust Speed Precip Events Conditions
12:53 AM 42.1 °F 40.2 °F 41.0 °F 96% 30.03 in 5.0 mi WNW 3.5 mph - N/A   Clear
1:53 AM 44.1 °F - 41.0 °F 89% 30.03 in 5.0 mi Calm Calm - N/A   Clear
2:27 AM 42.8 °F - 39.2 °F 87% 30.02 in 2.0 mi Calm Calm - N/A   Clear
2:37 AM 41.0 °F - 39.2 °F 93% 30.02 in 5.0 mi Calm Calm - N/A   Clear
2:53 AM 42.1 °F - 39.9 °F 92% 30.02 in 5.0 mi Calm Calm - N/A   Partly Cloudy
3:40 AM 41.0 °F - 39.2 °F 93% 30.02 in 4.0 mi Calm Calm - N/A   Mostly Cloudy
3:53 AM 42.1 °F - 39.9 °F 92% 30.02 in 6.0 mi Calm Calm - N/A   Overcast
4:27 AM 42.8 °F - 39.2 °F 87% 30.01 in 5.0 mi Calm Calm - N/A   Scattered Clouds
4:53 AM 39.9 °F 37.8 °F 39.0 °F 97% 30.02 in 3.0 mi NW 3.5 mph - N/A   Clear
5:53 AM 41.0 °F - 37.9 °F 89% 30.01 in 4.0 mi Calm Calm - N/A   Clear
6:53 AM 39.9 °F - 37.9 °F 93% 30.04 in 4.0 mi Calm Calm - N/A   Clear
7:53 AM 44.1 °F - 41.0 °F 89% 30.05 in 8.0 mi Calm Calm - 0.01 in   Clear
8:53 AM 53.1 °F - 46.0 °F 77% 30.07 in 8.0 mi Calm Calm - N/A   Partly Cloudy
9:53 AM 57.9 °F - 46.9 °F 67% 30.08 in 6.0 mi Calm Calm - N/A   Haze
10:53 AM 57.9 °F - 48.0 °F 70% 30.07 in 6.0 mi SE 5.8 mph - N/A   Haze
11:53 AM 59.0 °F - 48.0 °F 67% 30.06 in 5.0 mi SSE 5.8 mph - N/A   Haze
12:53 PM 57.9 °F - 48.9 °F 72% 30.04 in 5.0 mi SSE 6.9 mph - N/A   Haze
1:53 PM 57.9 °F - 48.0 °F 70% 30.03 in 6.0 mi SSE 8.1 mph - N/A   Haze
2:53 PM 57.9 °F - 48.0 °F 70% 30.03 in 6.0 mi SSE 8.1 mph - N/A   Haze
3:53 PM 57.9 °F - 48.0 °F 70% 30.02 in 7.0 mi SSE 5.8 mph - N/A   Clear
4:53 PM 55.9 °F - 46.9 °F 72% 30.04 in 8.0 mi Calm Calm - N/A   Clear
5:53 PM 55.0 °F - 46.0 °F 72% 30.04 in 9.0 mi Calm Calm - N/A   Clear
6:53 PM 48.9 °F - 45.0 °F 86% 30.05 in 7.0 mi Calm Calm - N/A   Clear
7:53 PM 48.9 °F - 45.0 °F 86% 30.06 in 7.0 mi Calm Calm - N/A   Clear
8:53 PM 46.0 °F - 43.0 °F 89% 30.09 in 6.0 mi Calm Calm - N/A   Clear
9:53 PM 46.0 °F - 43.0 °F 89% 30.09 in 6.0 mi Calm Calm - N/A   Clear
10:53 PM 46.0 °F - 43.0 °F 89% 30.10 in 4.0 mi Calm Calm - N/A   Clear
11:53 PM 44.1 °F - 42.1 °F 93% 30.09 in 4.0 mi Calm Calm - N/A   Clear